[[{"header":{"parameterUnit":"m.s-1","parameterCategory":1,"la1":30.2991,"la2":30.254,"lo1":-89.0895,"lo2":-89.0444,"dy":0.0017,"dx":0.0017,"nx":28,"ny":28,"refTime":"2023-10-10T09:00:00:Z","depth":0,"parameterNumber":2,"parameterNumberName":"U-component_of_WINDS"},"data":[0,0,0,0,0,0,0,0,0,0,0,0,0,0,0,0,0,0,0,0,0,0,0,0,0,0,0,0,0,0,0,0,0,0,0,0,0,0,0,0,0,0,0,0,0,0,0,0,0,0,0,0,0,0,0,0,0,0,1.6307,1.6308,0,1.638,1.6381,1.6382,1.6318,1.6316,1.6313,1.6311,1.6389,1.6393,1.6397,0,0,0,0,0,0,0,0,0,0,0,0,0,1.6115,1.6119,1.6307,1.6308,1.6309,1.638,1.6381,1.6382,1.6319,1.6316,1.6313,1.631,1.6387,1.6392,1.6398,0,0,0,0,0,0,0,0,0,0,0,0,0,1.6194,1.612,1.6307,1.6286,1.6285,1.638,1.6381,1.6382,1.632,1.6316,1.6312,1.6308,1.6385,1.6392,1.6399,1.6519,0,0,1.6419,1.6422,0,0,0,0,0,0,0,0,1.619,1.6201,1.6288,1.6287,1.6286,1.6336,1.6341,1.6428,1.6321,1.6306,1.6311,1.6306,1.6374,1.6382,1.6404,1.6522,1.6526,1.642,1.6424,1.6427,1.6429,0,0,0,0,0,0,0,1.6184,1.6198,1.6336,1.6289,1.6288,1.6273,1.628,1.6358,1.6362,1.6307,1.6303,1.6312,1.6373,1.6398,1.6406,1.6527,1.642,1.6426,1.643,1.6432,1.6746,1.675,0,0,0,0,0,0,1.6181,1.6194,1.6333,1.6338,1.6227,1.628,1.6288,1.6324,1.6361,1.6362,1.6316,1.6309,1.6388,1.6398,1.6408,1.655,1.6427,1.6433,1.6437,1.6742,1.6747,1.6751,0,0,0,0,0,0,1.6177,1.6194,1.633,1.6265,1.6281,1.6287,1.6329,1.6328,1.6352,1.6367,1.6367,1.634,1.6386,1.6399,1.6491,1.6551,1.6436,1.6442,1.6736,1.6743,1.6749,1.6835,0,0,0,0,0,0,1.6171,1.6193,1.6238,1.6266,1.6285,1.6412,1.6332,1.6332,1.6363,1.6356,1.639,1.6392,1.6383,1.6481,1.6498,1.6559,1.6448,1.6731,1.6739,1.6747,1.6827,1.6843,1.6858,0,0,0,0,0,1.6165,1.626,1.6241,1.6258,1.6341,1.6416,1.6426,1.6414,1.6369,1.6414,1.6424,1.639,1.6543,1.6491,1.6509,1.6573,1.6727,1.6737,1.6746,1.682,1.684,1.6857,0,0,0,0,0,0,1.624,1.6264,1.6242,1.6349,1.6381,1.6405,1.6462,1.6436,1.6482,1.6473,1.6457,1.6465,1.6562,1.6577,1.652,1.6691,1.6628,1.6641,1.6677,1.6697,1.6712,1.6706,1.6453,0,0,0,0,0,1.6269,1.6327,1.6345,1.6438,1.6454,1.6456,1.6488,1.6475,1.6508,1.6521,1.6537,1.6571,1.6625,1.6662,1.6714,1.6829,1.6835,1.6882,1.6897,1.691,1.6922,1.6982,1.7002,1.6783,1.6783,1.6783,0,0,1.633,1.635,1.6388,1.6453,1.6476,1.6536,1.6467,1.6534,1.6579,1.6532,1.6619,1.6632,1.6668,1.6772,1.6819,1.6788,1.6984,1.6922,1.6932,1.6937,1.6994,1.7015,1.7033,1.6789,1.6788,1.6787,0,0,1.6471,1.6493,1.6571,1.6595,1.663,1.6631,1.665,1.6678,1.6684,1.6771,1.6736,1.679,1.6886,1.6912,1.6938,1.7089,1.7059,1.7106,1.7187,1.7246,1.7263,1.7278,1.733,1.7349,1.7118,1.7118,1.7118,0,1.6542,1.6631,1.6615,1.6684,1.6714,1.6673,1.6752,1.6777,1.6828,1.6849,1.6814,1.6931,1.6953,1.7062,1.7098,1.7121,1.7142,1.7101,1.7262,1.7277,1.7291,1.734,1.736,1.7123,1.7123,1.7122,1.7122,0,1.6716,1.6778,1.6838,1.6886,1.6922,1.6997,1.6993,1.7032,1.7016,1.702,1.711,1.7134,1.7189,1.7214,1.7201,1.7321,1.73,1.7264,1.72,1.7317,1.7363,1.7382,1.7131,1.7129,1.7128,1.7126,0,0,1.6906,1.6944,1.6966,1.6987,1.7022,1.707,1.7143,1.7195,1.7228,1.7265,1.7325,1.7406,1.7372,1.7402,1.7391,1.7443,1.7558,1.74,1.74,1.7427,1.769,1.7716,1.7738,1.7539,1.7543,1.7546,1.7686,0,1.7047,1.7171,1.7159,1.7277,1.7334,1.7295,1.7358,1.7387,1.7393,1.7442,1.7449,1.7506,1.7457,1.7475,1.7524,1.7534,1.7611,1.7524,1.7594,1.7597,1.7584,1.7763,1.7791,1.7922,1.7705,1.7708,1.771,0,1.7228,1.7269,1.7393,1.7418,1.7441,1.7498,1.7544,1.7592,1.7624,1.7624,1.7657,1.7637,1.7709,1.7645,1.7744,1.7685,1.7714,1.7723,1.7727,1.7732,1.7659,1.7771,1.7964,1.7983,1.7738,1.7736,1.7734,0,1.7352,1.7439,1.7523,1.7543,1.7575,1.7615,1.7631,1.7658,1.769,1.7731,1.7752,1.7802,1.7829,1.7868,1.7862,1.7815,1.7963,1.7898,1.7964,1.7965,1.7996,1.7994,1.8194,1.8018,1.8017,1.8017,1.8016,0,1.751,1.7587,1.7579,1.7631,1.7715,1.7701,1.7785,1.7796,1.7821,1.7874,1.7845,1.7896,1.7885,1.7936,1.7932,1.8014,1.8027,1.8029,1.8027,1.8031,1.803,1.8048,1.8038,1.8022,1.8021,1.802,1.8019,0,1.7663,1.7661,1.775,1.7773,1.778,1.7841,1.7861,1.791,1.7913,1.798,1.7996,1.8001,1.8059,1.8057,1.8123,1.812,1.8221,1.8209,1.8209,1.8206,1.8272,1.8265,1.849,1.8518,1.8325,1.8327,1.8328,0,1.7762,1.782,1.7848,1.7881,1.7899,1.7953,1.7985,1.7973,1.8008,1.8047,1.8091,1.8147,1.819,1.8284,1.8294,1.8345,1.8333,1.8408,1.834,1.8341,1.8331,1.8327,1.8332,1.8421,1.8423,1.8425,1.8426,0,1.7939,1.7935,1.7982,1.8028,1.8066,1.8103,1.8136,1.8165,1.8157,1.8197,1.8255,1.8289,1.8355,1.841,1.8458,1.8474,1.8449,1.8448,1.8465,1.8469,1.8466,1.8466,1.8244,1.8442,1.844,1.8439,1.8438,1.8438,1.8067,1.8116,1.8143,1.8195,1.8219,1.825,1.8296,1.8305,1.8353,1.8405,1.8396,1.8461,1.849,1.8552,1.8572,1.8623,1.8596,1.8623,1.8629,1.8635,1.8641,1.8459,1.8632,1.8632,1.8631,1.8631,1.863,0,1.8241,1.8256,1.8304,1.8351,1.8392,1.8364,1.8399,1.8435,1.8492,1.8521,1.8564,1.863,1.8683,1.8697,1.8747,1.8785,1.8774,1.8798,1.8795,1.8798,1.8663,1.8642,1.8806,1.8806,1.8806,1.8806,1.8806,1.8806,1.8336,1.8416,1.8415,1.8506,1.8521,1.8583,1.8605,1.8634,1.8657,1.8731,1.8774,1.8783,1.8806,1.8858,1.8904,1.8907,1.8926,1.8955,1.8953,1.8826,1.8808,1.8791,1.8771,1.896,1.896,1.9083,1.9084,1.9085]},{"header":{"parameterUnit":"m.s-1","parameterCategory":1,"la1":30.2991,"la2":30.254,"lo1":-89.0895,"lo2":-89.0444,"dy":0.0017,"dx":0.0017,"nx":28,"ny":28,"refTime":"2023-10-10T09:00:00:Z","depth":0,"parameterNumber":3,"parameterNumberName":"V-component_of_WINDS"},"data":[0,0,0,0,0,0,0,0,0,0,0,0,0,0,0,0,0,0,0,0,0,0,0,0,0,0,0,0,0,0,0,0,0,0,0,0,0,0,0,0,0,0,0,0,0,0,0,0,0,0,0,0,0,0,0,0,0,0,0.0765,0.0765,0,0.0814,0.0814,0.0815,0.0768,0.0766,0.0764,0.0762,0.0817,0.082,0.0823,0,0,0,0,0,0,0,0,0,0,0,0,0,0.0636,0.0638,0.0765,0.0765,0.0766,0.0813,0.0814,0.0815,0.0768,0.0766,0.0764,0.0761,0.0816,0.082,0.0824,0,0,0,0,0,0,0,0,0,0,0,0,0,0.0689,0.0639,0.0765,0.0748,0.0747,0.0813,0.0814,0.0815,0.0769,0.0766,0.0763,0.076,0.0815,0.0819,0.0824,0.091,0,0,0.0839,0.0841,0,0,0,0,0,0,0,0,0.0686,0.0694,0.075,0.0749,0.0748,0.0782,0.0789,0.0847,0.0769,0.0761,0.0762,0.0759,0.0808,0.0813,0.0829,0.0913,0.0915,0.0839,0.0842,0.0844,0.0846,0,0,0,0,0,0,0,0.0682,0.0691,0.0784,0.0751,0.075,0.074,0.0744,0.0799,0.08,0.0761,0.0758,0.0764,0.0807,0.0824,0.083,0.0916,0.0839,0.0843,0.0846,0.0848,0.1074,0.1077,0,0,0,0,0,0,0.068,0.0689,0.0783,0.0786,0.0709,0.0745,0.075,0.0774,0.0799,0.08,0.0766,0.0762,0.0817,0.0824,0.0831,0.0934,0.0844,0.0849,0.0852,0.1071,0.1075,0.1078,0,0,0,0,0,0,0.0677,0.0689,0.0781,0.0736,0.0747,0.075,0.0778,0.0776,0.0793,0.0803,0.0803,0.0784,0.0815,0.0825,0.0891,0.0935,0.0851,0.0855,0.1067,0.1072,0.1076,0.114,0,0,0,0,0,0,0.0674,0.0688,0.072,0.0737,0.075,0.0838,0.078,0.0779,0.0801,0.0795,0.0819,0.082,0.0814,0.0884,0.0896,0.094,0.0859,0.1063,0.1069,0.1075,0.1134,0.1147,0.1157,0,0,0,0,0,0.0669,0.0737,0.0721,0.0733,0.0789,0.0841,0.0848,0.0838,0.0805,0.0838,0.0844,0.0819,0.0928,0.0891,0.0904,0.0951,0.1061,0.1068,0.1074,0.1129,0.1144,0.1157,0,0,0,0,0,0,0.0726,0.0739,0.0722,0.0797,0.0818,0.0833,0.0874,0.0854,0.0886,0.088,0.0867,0.0873,0.0943,0.0954,0.0912,0.1036,0.0989,0.0999,0.1027,0.1041,0.1052,0.1049,0.0863,0,0,0,0,0,0.0747,0.0786,0.0796,0.0861,0.0872,0.0871,0.0893,0.0884,0.0906,0.0915,0.0926,0.0949,0.0989,0.1015,0.1052,0.1135,0.114,0.1174,0.1185,0.1195,0.1204,0.1249,0.1265,0.1101,0.1101,0.1101,0,0,0.0791,0.0803,0.0829,0.0873,0.0888,0.0931,0.0879,0.0926,0.0958,0.0923,0.0985,0.0994,0.102,0.1095,0.1129,0.1106,0.125,0.1204,0.1211,0.1215,0.1258,0.1274,0.1287,0.1106,0.1105,0.1104,0,0,0.0894,0.0906,0.0962,0.0978,0.1001,0.1,0.1013,0.1031,0.1035,0.1097,0.1072,0.111,0.1178,0.1197,0.1216,0.1326,0.1305,0.1338,0.1399,0.1443,0.1456,0.1467,0.1507,0.1522,0.1347,0.1347,0.1347,0,0.0947,0.1008,0.0994,0.1042,0.1063,0.1031,0.1088,0.1105,0.114,0.1155,0.1128,0.1213,0.1228,0.1308,0.1334,0.135,0.1366,0.1336,0.1455,0.1466,0.1477,0.1515,0.153,0.1351,0.1351,0.135,0.135,0,0.1072,0.1115,0.1158,0.119,0.1216,0.1269,0.1264,0.1291,0.1279,0.1281,0.1346,0.1362,0.1402,0.142,0.141,0.1499,0.1484,0.1456,0.141,0.1496,0.1532,0.1546,0.1357,0.1355,0.1354,0.1353,0,0,0.1213,0.1236,0.1252,0.1266,0.1289,0.1323,0.1375,0.1412,0.1437,0.1462,0.1506,0.1564,0.1538,0.156,0.1551,0.159,0.1677,0.1558,0.1558,0.158,0.1777,0.1798,0.1815,0.1662,0.1665,0.1667,0.1775,0,0.1316,0.1405,0.1393,0.1479,0.1519,0.1489,0.1534,0.1554,0.1557,0.1593,0.1597,0.1639,0.1602,0.1615,0.1651,0.1658,0.1716,0.165,0.1705,0.1707,0.17,0.1833,0.1855,0.1956,0.1788,0.1791,0.1792,0,0.1449,0.1477,0.1567,0.1583,0.16,0.164,0.1674,0.1708,0.173,0.173,0.1753,0.1738,0.1791,0.1743,0.1817,0.1772,0.1794,0.1801,0.1804,0.181,0.1756,0.1843,0.1988,0.2003,0.1814,0.1812,0.1811,0,0.1544,0.1604,0.1665,0.1678,0.1699,0.1729,0.1739,0.1758,0.1781,0.1811,0.1826,0.1862,0.1883,0.1911,0.1906,0.1871,0.1983,0.1933,0.1985,0.1985,0.2011,0.2009,0.2162,0.2024,0.2023,0.2023,0.2023,0,0.1661,0.1717,0.1708,0.1746,0.1808,0.1795,0.1857,0.1864,0.1881,0.1921,0.1897,0.1935,0.1926,0.1964,0.196,0.2023,0.2032,0.2034,0.2033,0.2037,0.2037,0.2052,0.2045,0.2027,0.2026,0.2025,0.2025,0,0.1778,0.1774,0.1838,0.1852,0.1857,0.1902,0.1915,0.1951,0.1952,0.2003,0.2014,0.2016,0.2059,0.2057,0.2107,0.2104,0.2182,0.2172,0.2174,0.2172,0.2224,0.2219,0.2392,0.2415,0.2261,0.2262,0.2264,0,0.1854,0.1896,0.1914,0.1938,0.1949,0.1989,0.2012,0.2001,0.2026,0.2054,0.2088,0.2128,0.2161,0.2232,0.2239,0.2277,0.2268,0.2326,0.2274,0.2277,0.227,0.2268,0.2273,0.2337,0.2339,0.234,0.2341,0,0.1989,0.1984,0.2018,0.2051,0.2078,0.2104,0.2128,0.2149,0.2141,0.2171,0.2214,0.2239,0.2289,0.233,0.2367,0.2379,0.236,0.2357,0.2371,0.2376,0.2376,0.2378,0.2203,0.2354,0.2353,0.2352,0.2351,0.235,0.2088,0.2124,0.2142,0.218,0.2196,0.2219,0.2253,0.2258,0.2293,0.2332,0.2324,0.2373,0.2394,0.2441,0.2456,0.2495,0.2475,0.2495,0.25,0.2506,0.2512,0.2369,0.2502,0.2501,0.2501,0.2501,0.2501,0,0.2222,0.2232,0.2267,0.23,0.233,0.2307,0.2332,0.2359,0.2402,0.2423,0.2455,0.2505,0.2545,0.2555,0.2594,0.2623,0.2616,0.2634,0.2632,0.2636,0.2528,0.2512,0.264,0.264,0.264,0.264,0.264,0.264,0.2295,0.2355,0.2353,0.2421,0.2431,0.2478,0.2494,0.2515,0.2532,0.2588,0.2621,0.2626,0.2643,0.2683,0.2719,0.2721,0.2737,0.2759,0.2758,0.2657,0.2643,0.263,0.2615,0.2762,0.2763,0.2862,0.2863,0.2864]}]]